Covington, KY

10:02 PM EST on December 15, 2019 (GMT -0500)
Cincinnati-Northern KY International

Weather History for KCVG - October, 2019

Change the Weather History Date:

Thursday, October 17, 2019

  Actual Average Record
Temperature  
Mean Temperature 48 °F 55 °F  
Max Temperature 61 °F 66 °F 86 °F (1950)
Min Temperature 36 °F 45 °F 23 °F (1977)
Degree Days  
Heating Degree Days 16 10  
Month to date heating degree days 92 133  
Since 1 July heating degree days 92 191  
Cooling Degree Days 0 0  
Month to date cooling degree days 54 16  
Year to date cooling degree days 1496 1121  
Moisture  
Dew Point 35 °F    
Average Humidity 62    
Maximum Humidity 86    
Minimum Humidity 36    
Precipitation  
Precipitation 0.00 in 0.11 in 2.06 in (1975)
Month to date precipitation 1.11 1.80  
Year to date precipitation 43.53 34.22  
Snow  
Snow 0.00 in 0.00 in 0.00 in ()
Month to date snowfall 0.0 0.1  
Since 1 July snowfall 0.0 0.1  
Since 1 September snowfall 0.0 0.1  
Snow Depth 0.00 in    
Sea Level Pressure  
Sea Level Pressure 29.99 in    
Wind  
Wind Speed 8 mph ()    
Max Wind Speed 20 mph    
Max Gust Speed 24 mph    
Visibility 10.0 miles    
Events      
T = Trace of Precipitation, MM = Missing Value Source: Averaged Metar Reports

Daily Weather History Graph

Daily Weather History Graph

Search for Another Location

Airport or City:

Astronomy

Oct. 17, 2019 Rise Set
Actual Time 7:49 AM EDT 6:57 PM EDT
Civil Twilight 7:23 AM EDT 7:24 PM EDT
Nautical Twilight 6:51 AM EDT 7:55 PM EDT
Astronomical Twilight 6:21 AM EDT 8:26 PM EDT
Moon 9:30 PM EDT (10/17) 11:19 AM EDT (10/17)
Length of Visible Light 12h 01m
Length of Day
11h 07m
Waning Gibbous, 87% of the Moon is Illuminated
Oct 17
Waning Gibbous
Oct 21
Last Quarter
Oct 27
New
Nov 4
First Quarter
Nov 12
Full

Hourly Weather History & Observations

Time (EDT) Temp. Windchill Dew Point Humidity Pressure Visibility Wind Dir Wind Speed Gust Speed Precip Events Conditions
12:52 AM 46.0 °F 41.0 °F 36.0 °F 68% 29.98 in 10.0 mi West 10.4 mph - N/A   Overcast
1:52 AM 44.1 °F 39.0 °F 36.0 °F 73% 29.98 in 10.0 mi West 9.2 mph - N/A   Partly Cloudy
2:52 AM 41.0 °F 36.4 °F 35.1 °F 79% 29.98 in 10.0 mi WNW 6.9 mph - N/A   Partly Cloudy
3:52 AM 42.1 °F 36.6 °F 35.1 °F 76% 29.97 in 10.0 mi WNW 9.2 mph - N/A   Scattered Clouds
4:52 AM 42.1 °F 36.6 °F 35.1 °F 76% 29.96 in 10.0 mi WNW 9.2 mph - N/A   Clear
5:52 AM 42.1 °F 35.7 °F 34.0 °F 73% 29.98 in 10.0 mi WNW 11.5 mph - N/A   Clear
6:52 AM 37.9 °F - 33.1 °F 83% 29.98 in 10.0 mi Calm Calm - N/A   Clear
7:52 AM 39.0 °F 36.8 °F 35.1 °F 86% 29.99 in 10.0 mi SW 3.5 mph - N/A   Mostly Cloudy
8:52 AM 41.0 °F 38.0 °F 36.0 °F 82% 30.01 in 10.0 mi West 4.6 mph - N/A   Mostly Cloudy
9:52 AM 46.0 °F 42.5 °F 37.0 °F 71% 30.01 in 10.0 mi West 6.9 mph - N/A   Scattered Clouds
10:52 AM 51.1 °F - 37.0 °F 59% 30.02 in 10.0 mi WNW 12.7 mph - N/A   Partly Cloudy
11:52 AM 53.1 °F - 35.1 °F 50% 30.02 in 10.0 mi WNW 13.8 mph 21.9 mph N/A   Mostly Cloudy
12:52 PM 57.0 °F - 35.1 °F 44% 30.01 in 10.0 mi West 13.8 mph 21.9 mph N/A   Scattered Clouds
1:52 PM 57.9 °F - 35.1 °F 42% 29.99 in 10.0 mi West 9.2 mph 19.6 mph N/A   Partly Cloudy
2:52 PM 59.0 °F - 34.0 °F 39% 29.97 in 10.0 mi WNW 17.3 mph 23.0 mph N/A   Partly Cloudy
3:52 PM 59.0 °F - 34.0 °F 39% 29.96 in 10.0 mi WNW 9.2 mph - N/A   Partly Cloudy
4:52 PM 60.1 °F - 34.0 °F 38% 29.96 in 10.0 mi West 15.0 mph - N/A   Scattered Clouds
5:52 PM 57.9 °F - 34.0 °F 41% 29.96 in 10.0 mi West 11.5 mph - N/A   Partly Cloudy
6:52 PM 55.0 °F - 34.0 °F 45% 29.97 in 10.0 mi WNW 9.2 mph - N/A   Partly Cloudy
7:52 PM 50.0 °F - 35.1 °F 57% 29.98 in 10.0 mi WNW 5.8 mph - N/A   Clear
8:52 PM 48.0 °F - 35.1 °F 61% 30.00 in 10.0 mi WNW 5.8 mph - N/A   Clear
9:52 PM 46.0 °F 44.8 °F 36.0 °F 68% 30.01 in 10.0 mi WNW 3.5 mph - N/A   Clear
10:52 PM 48.0 °F - 35.1 °F 61% 30.03 in 10.0 mi WNW 5.8 mph - N/A   Clear
11:52 PM 43.0 °F - 35.1 °F 74% 30.03 in 10.0 mi Calm Calm - N/A   Clear